Location: East Guldeford
(50.9500°N, 0.7500°E)
Time: 09:46:33
(UTC+00:00)

Okean 1 - Pass Details

Date: 12 May 2021
Orbit: 537 x 555 km, 82.5° (Epoch: 16 June)

Event Time Altitude Azimuth Distance (km) Brightness Sun altitude
Exits shadow 22:24:10 42° 142° (SE) 793 3.6 -18.0°
Maximum altitude 22:25:08 53° 95° (E) 676 3.5 -18.0°
Drops below altitude 10° 22:29:02 10° 19° (NNE) 1,824 6.7 -18.2°
Sets 22:31:14 0° 15° (NNE) 2,720 7.8 -18.4°
